Location: Heidgraben
(53.7081°N, 9.6576°E)
Time: 00:14:57
(UTC+00:00)

Cosmos 2333 Rocket - Pass Details

Date: 28 October 2020
Orbit: 841 x 861 km, 70.8° (Epoch: 28 November)

Event Time Altitude Azimuth Distance (km) Brightness Sun altitude
Exits shadow 00:44:58 13° 15° (NNE) 2,299 4.9 -45.0°
Drops below altitude 10° 00:45:45 10° 21° (NNE) 2,486 5.2 -44.9°
Sets 00:48:57 0° 39° (NE) 3,419 6.1 -44.6°
